GW7323 Weather Reports


time (UTC)temp
C
wind
direction
speed
KPH
gust
KPH
rain 1hr
cm
rain 24hr
cm
rain mn
cm
humidity
%
barometer
mb
20260905224526 30 117 9.7 24.1 0.00 0.00 0.00 68 1012.4
20260905224013 30 131 12.9 29.0 0.00 0.00 0.00 67 1012.4
20260905223506 30 68 14.5 29.0 0.00 0.00 0.00 68 1012.2
20260905223027 30 97 14.5 27.4 0.00 0.00 0.00 68 1012.1
20260905222506 31 102 12.9 29.0 0.00 0.00 0.00 67 1012.0
20260905222009 31 126 19.3 29.0 0.00 0.00 0.00 67 1012.0
20260905221533 31 77 19.3 30.6 0.00 0.00 0.00 66 1011.9
20260905221008 31 98 12.9 30.6 0.00 0.00 0.00 67 1011.9
20260905220510 31 68 9.7 29.0 0.00 0.00 0.00 68 1011.9
20260905220020 31 83 16.1 29.0 0.00 0.00 0.00 67 1011.8
20260905215517 31 101 16.1 29.0 0.00 0.00 0.00 66 1011.8
20260905215015 32 103 14.5 27.4 0.00 0.00 0.00 67 1011.8
20260905214523 32 94 6.4 24.1 0.00 0.00 0.00 68 1011.8
20260905214015 32 122 16.1 24.1 0.00 0.00 0.00 68 1011.8
20260905213512 32 86 11.3 33.8 0.00 0.00 0.00 68 1011.8
20260905213023 32 107 19.3 33.8 0.00 0.00 0.00 67 1011.7
20260905212504 32 113 16.1 32.2 0.00 0.00 0.00 67 1011.7
20260905212003 32 126 12.9 27.4 0.00 0.00 0.00 67 1011.5
20260905211522 32 133 14.5 27.4 0.00 0.00 0.00 67 1011.5
20260905211006 32 94 11.3 27.4 0.00 0.00 0.00 67 1011.5
20260905210510 32 68 12.9 22.5 0.00 0.00 0.00 67 1011.6
20260905210016 32 91 11.3 17.7 0.00 0.00 0.00 66 1011.6
20260905205511 32 46 9.7 25.7 0.00 0.00 0.00 67 1011.7
20260905205010 32 92 8.0 25.7 0.00 0.00 0.00 66 1011.8
20260905204523 33 77 11.3 20.9 0.00 0.00 0.00 65 1011.8
20260905204011 33 71 9.7 25.7 0.00 0.00 0.00 64 1011.8
20260905203515 33 37 16.1 25.7 0.00 0.00 0.00 64 1011.8
20260905203030 33 323 12.9 22.5 0.00 0.00 0.00 63 1011.8
20260905202514 33 4 6.4 17.7 0.00 0.00 0.00 63 1011.8
20260905202013 33 26 9.7 19.3 0.00 0.00 0.00 62 1011.8
20260905201506 33 83 12.9 25.7 0.00 0.00 0.00 63 1011.8
20260905201007 33 67 14.5 29.0 0.00 0.00 0.00 62 1011.7
20260905200506 33 117 16.1 29.0 0.00 0.00 0.00 63 1011.7
20260905200015 33 359 12.9 20.9 0.00 0.00 0.00 63 1011.8
20260905195512 33 56 9.7 17.7 0.00 0.00 0.00 63 1011.8
20260905195009 33 98 4.8 19.3 0.00 0.00 0.00 64 1011.8
20260905194521 33 173 9.7 19.3 0.00 0.00 0.00 62 1012.0
20260905194012 33 96 8.0 27.4 0.00 0.00 0.00 64 1012.0
20260905193514 33 23 8.0 27.4 0.00 0.00 0.00 64 1012.1
20260905193023 33 55 11.3 20.9 0.00 0.00 0.00 63 1012.2
20260905192514 33 25 9.7 24.1 0.00 0.00 0.00 65 1012.3
20260905192013 32 319 11.3 24.1 0.00 0.00 0.00 65 1012.3
20260905191526 33 295 6.4 19.3 0.00 0.00 0.00 65 1012.3
20260905191011 32 359 6.4 19.3 0.00 0.00 0.00 66 1012.3
20260905190504 32 310 9.7 17.7 0.00 0.00 0.00 65 1012.3
20260905190010 32 346 6.4 12.9 0.00 0.00 0.00 66 1012.3
20260905185506 32 302 6.4 14.5 0.00 0.00 0.00 66 1012.4
20260905185006 32 326 8.0 17.7 0.00 0.00 0.00 66 1012.5
20260905184513 32 340 4.8 17.7 0.00 0.00 0.00 67 1012.5
20260905184010 32 23 8.0 14.5 0.00 0.00 0.00 67 1012.5
20260905183509 32 328 9.7 17.7 0.00 0.00 0.00 66 1012.6
20260905183018 32 282 8.0 17.7 0.00 0.00 0.00 67 1012.7
20260905182514 31 345 8.0 14.5 0.00 0.00 0.00 67 1012.7
20260905182011 32 287 9.7 14.5 0.00 0.00 0.00 67 1012.9
20260905181523 32 312 11.3 14.5 0.00 0.00 0.00 66 1012.9
20260905181011 32 20 6.4 16.1 0.00 0.00 0.00 67 1013.0
20260905180515 31 229 4.8 16.1 0.00 0.00 0.00 67 1013.0
20260905180025 31 320 4.8 19.3 0.00 0.00 0.00 67 1013.1
20260905175505 31 89 6.4 19.3 0.00 0.00 0.00 67 1013.1
20260905175007 31 285 6.4 16.1 0.00 0.00 0.00 67 1013.1
20260905174508 31 296 8.0 14.5 0.00 0.00 0.00 66 1013.2
20260905174008 31 270 8.0 12.9 0.00 0.00 0.00 67 1013.3
20260905173510 31 314 6.4 12.9 0.00 0.00 0.00 69 1013.3
20260905173014 31 305 9.7 12.9 0.00 0.00 0.00 67 1013.4
20260905172512 31 328 6.4 12.9 0.00 0.00 0.00 68 1013.5
20260905172012 31 313 6.4 12.9 0.00 0.00 0.00 67 1013.6
20260905171538 31 292 4.8 9.7 0.00 0.00 0.00 69 1013.6
20260905171018 30 234 4.8 12.9 0.00 0.00 0.00 69 1013.7
20260905170514 30 302 6.4 12.9 0.00 0.00 0.00 69 1013.8
20260905170028 30 230 9.7 12.9 0.00 0.00 0.00 69 1013.8
20260905165512 30 276 9.7 12.9 0.00 0.00 0.00 69 1013.9
20260905165003 30 309 9.7 12.9 0.00 0.00 0.00 69 1013.9
20260905164506 30 311 8.0 12.9 0.00 0.00 0.00 70 1013.9
20260905164008 30 257 8.0 12.9 0.00 0.00 0.00 69 1014.0
20260905163506 30 247 8.0 14.5 0.00 0.00 0.00 70 1013.9
20260905163011 29 324 6.4 14.5 0.00 0.00 0.00 70 1013.9
20260905162510 29 314 8.0 14.5 0.00 0.00 0.00 69 1014.0
20260905162013 29 7 8.0 16.1 0.00 0.00 0.00 70 1013.9
20260905161520 29 290 9.7 16.1 0.00 0.00 0.00 70 1013.9
20260905161015 28 323 8.0 14.5 0.00 0.00 0.00 71 1014.0
20260905160515 28 334 8.0 14.5 0.00 0.00 0.00 71 1013.9
20260905160036 28 345 9.7 14.5 0.00 0.00 0.00 72 1013.8
20260905155511 28 13 9.7 17.7 0.00 0.00 0.00 71 1013.9
20260905155011 28 318 11.3 17.7 0.00 0.00 0.00 71 1013.9
20260905154544 28 288 12.9 17.7 0.00 0.00 0.00 71 1014.0
20260905154003 28 297 9.7 19.3 0.00 0.00 0.00 71 1014.0
20260905153510 28 292 12.9 19.3 0.00 0.00 0.00 70 1014.1
20260905153011 28 295 12.9 19.3 0.00 0.00 0.00 70 1014.1
20260905152508 28 78 6.4 17.7 0.00 0.00 0.00 72 1014.0
20260905152007 28 310 12.9 17.7 0.00 0.00 0.00 71 1013.9
20260905151516 28 309 6.4 17.7 0.00 0.00 0.00 70 1013.9
20260905151007 28 238 14.5 22.5 0.00 0.00 0.00 71 1013.9
20260905150513 28 298 11.3 24.1 0.00 0.00 0.00 71 1014.0
20260905150025 27 277 14.5 24.1 0.00 0.00 0.00 72 1013.9
20260905145514 27 256 11.3 20.9 0.00 0.00 0.00 73 1014.0
20260905145011 27 234 9.7 20.9 0.00 0.00 0.00 73 1014.0
20260905144528 27 256 14.5 20.9 0.00 0.00 0.00 74 1014.1
20260905144014 27 296 11.3 19.3 0.00 0.00 0.00 74 1014.2
20260905143510 27 262 11.3 19.3 0.00 0.00 0.00 74 1014.3
20260905143006 27 256 6.4 16.1 0.00 0.00 0.00 74 1014.2
20260905142507 27 229 9.7 17.7 0.00 0.00 0.00 74 1014.2
20260905142008 27 238 12.9 17.7 0.00 0.00 0.00 74 1014.1
20260905141512 27 300 14.5 17.7 0.00 0.00 0.00 74 1014.0
20260905141010 27 226 12.9 17.7 0.00 0.00 0.00 75 1013.8
20260905140507 27 274 8.0 17.7 0.00 0.00 0.00 76 1013.7
20260905140016 27 308 6.4 16.1 0.00 0.00 0.00 77 1013.7
20260905135509 26 307 6.4 17.7 0.00 0.00 0.00 77 1013.8
20260905135013 26 260 8.0 19.3 0.00 0.00 0.00 77 1013.8
20260905134523 26 236 12.9 19.3 0.00 0.00 0.00 77 1013.6
20260905134013 26 231 11.3 17.7 0.00 0.00 0.00 77 1013.7
20260905133515 26 202 9.7 24.1 0.00 0.00 0.00 78 1013.9
20260905133020 26 195 12.9 24.1 0.00 0.00 0.00 79 1013.9
20260905132504 26 219 9.7 24.1 0.00 0.00 0.00 80 1013.9
20260905132008 26 216 11.3 22.5 0.00 0.00 0.00 80 1013.9
20260905131508 26 327 12.9 22.5 0.00 0.00 0.00 80 1013.8
20260905131008 25 285 8.0 24.1 0.00 0.00 0.00 81 1013.9
20260905130509 25 202 16.1 24.1 0.00 0.00 0.00 80 1013.8
20260905130017 25 224 11.3 24.1 0.00 0.00 0.00 80 1013.9
20260905125512 25 214 9.7 27.4 0.00 0.00 0.00 80 1013.9
20260905125012 25 215 11.3 27.4 0.00 0.00 0.00 80 1013.9
20260905124530 26 243 16.1 27.4 0.00 0.00 0.00 79 1013.9
20260905124011 26 230 14.5 20.9 0.00 0.00 0.00 83 1013.8
20260905123512 26 240 8.0 17.7 0.00 0.00 0.00 84 1013.7
20260905123023 26 198 6.4 12.9 0.00 0.00 0.00 84 1013.7
20260905122518 26 188 6.4 12.9 0.00 0.00 0.00 85 1013.5
20260905122011 26 163 4.8 11.3 0.00 0.00 0.00 87 1013.5
20260905121506 25 198 4.8 11.3 0.00 0.00 0.00 88 1013.4
20260905121004 25 164 6.4 8.0 0.00 0.00 0.00 90 1013.4
20260905120504 25 94 0.0 0.0 0.00 0.00 0.00 92 1013.2
20260905120020 24 66 0.0 1.6 0.00 0.00 0.00 92 1013.1
20260905115509 24 66 0.0 1.6 0.00 0.00 0.00 92 1013.0
20260905115010 24 66 0.0 1.6 0.00 0.00 0.00 92 1013.0
20260905114516 24 66 0.0 1.6 0.00 0.00 0.00 92 1013.0
20260905114009 24 40 0.0 3.2 0.00 0.00 0.00 92 1013.0
20260905113513 24 19 1.6 3.2 0.00 0.00 0.00 92 1013.1
20260905113021 24 18 1.6 4.8 0.00 0.00 0.00 92 1013.1
20260905112512 24 336 1.6 4.8 0.00 0.00 0.00 92 1013.0
20260905112013 24 329 3.2 4.8 0.00 0.00 0.00 92 1012.9
20260905111524 24 328 1.6 4.8 0.00 0.00 0.00 91 1012.9
20260905111012 24 316 3.2 6.4 0.00 0.00 0.00 91 1012.9
20260905110504 24 311 4.8 6.4 0.00 0.00 0.00 91 1012.8
20260905110007 24 310 4.8 6.4 0.00 0.00 0.00 91 1012.8
20260905105504 24 295 4.8 6.4 0.00 0.00 0.00 91 1012.8
20260905105017 24 292 3.2 6.4 0.00 0.00 0.00 91 1012.8
20260905104522 24 309 3.2 6.4 0.00 0.00 0.00 91 1012.8
20260905104007 24 311 4.8 6.4 0.00 0.00 0.00 91 1012.8
20260905103511 24 306 3.2 3.2 0.00 0.00 0.00 91 1012.8
20260905103020 24 307 1.6 6.4 0.00 0.00 0.00 92 1012.8
20260905102511 24 311 1.6 6.4 0.00 0.00 0.00 91 1012.7
20260905102012 24 333 4.8 6.4 0.00 0.00 0.00 91 1012.7
20260905101523 25 329 3.2 4.8 0.00 0.00 0.00 91 1012.7
20260905101010 25 5 1.6 6.4 0.00 0.00 0.00 90 1012.8
20260905100510 25 336 3.2 6.4 0.00 0.00 0.00 90 1012.8
20260905100006 25 20 3.2 4.8 0.00 0.00 0.00 90 1012.9
20260905095512 25 34 3.2 4.8 0.00 0.00 0.00 90 1013.0
20260905095006 25 63 1.6 4.8 0.00 0.00 0.00 90 1013.0
20260905094506 25 96 1.6 4.8 0.00 0.00 0.00 90 1013.0
20260905094010 25 52 1.6 4.8 0.00 0.00 0.00 89 1013.0
20260905093507 25 51 3.2 4.8 0.00 0.00 0.00 90 1013.0
20260905092516 25 49 1.6 3.2 0.00 0.00 0.00 90 1013.0
20260905092012 25 45 1.6 3.2 0.00 0.00 0.00 90 1013.0
20260905091523 25 44 1.6 3.2 0.00 0.00 0.00 90 1012.8
20260905091013 25 43 1.6 3.2 0.00 0.00 0.00 89 1012.9
20260905090510 25 42 0.0 4.8 0.00 0.00 0.00 89 1012.9
20260905090024 25 352 1.6 4.8 0.00 0.00 0.00 89 1012.9
20260905085513 25 352 1.6 4.8 0.00 0.00 0.00 88 1012.8
20260905085003 25 303 3.2 4.8 0.00 0.00 0.00 88 1012.8
20260905084512 25 334 3.2 4.8 0.00 0.00 0.00 89 1012.9
20260905084006 25 345 3.2 3.2 0.00 0.00 0.00 88 1012.9
20260905083506 25 345 3.2 4.8 0.00 0.00 0.00 88 1012.9
20260905083016 25 297 3.2 4.8 0.00 0.00 0.00 88 1012.9
20260905082507 25 288 4.8 4.8 0.00 0.00 0.00 89 1012.8
20260905082011 25 36 1.6 3.2 0.00 0.00 0.00 89 1012.7
20260905081515 25 31 1.6 3.2 0.00 0.00 0.00 89 1012.7
20260905081013 25 25 1.6 4.8 0.00 0.00 0.00 89 1012.7
20260905080511 25 19 1.6 4.8 0.00 0.00 0.00 89 1012.5
20260905080034 25 18 3.2 4.8 0.00 0.00 0.00 89 1012.4
20260905075511 25 71 1.6 3.2 0.00 0.00 0.00 89 1012.4
20260905075012 25 26 1.6 4.8 0.00 0.00 0.00 89 1012.3
20260905074521 25 303 3.2 4.8 0.00 0.00 0.00 89 1012.3
20260905074003 25 318 3.2 6.4 0.00 0.00 0.00 90 1012.2
20260905073506 25 11 3.2 6.4 0.00 0.00 0.00 90 1012.2
20260905073026 25 70 0.0 4.8 0.00 0.00 0.00 90 1012.2
20260905072506 25 32 1.6 6.4 0.00 0.00 0.00 90 1012.1
20260905072007 25 332 3.2 8.0 0.00 0.00 0.00 90 1012.0
20260905071512 25 304 4.8 8.0 0.00 0.00 0.00 90 1012.0
20260905071010 25 308 6.4 8.0 0.00 0.00 0.00 90 1012.1
20260905070513 25 321 4.8 6.4 0.00 0.00 0.00 90 1012.1
20260905070023 26 4 1.6 8.0 0.00 0.00 0.00 89 1012.2
20260905065519 26 315 4.8 8.0 0.00 0.00 0.00 88 1012.3
20260905065012 26 304 6.4 8.0 0.00 0.00 0.00 88 1012.3
20260905064521 26 307 6.4 8.0 0.00 0.00 0.00 88 1012.2
20260905064010 26 293 4.8 6.4 0.00 0.00 0.00 88 1012.4
20260905063502 26 53 3.2 4.8 0.00 0.00 0.00 88 1012.5
20260905063006 26 74 1.6 3.2 0.00 0.00 0.00 88 1012.6
20260905062505 26 76 1.6 4.8 0.00 0.00 0.00 88 1012.7
20260905062009 26 20 1.6 4.8 0.00 0.00 0.00 88 1012.8
20260905061529 26 345 3.2 4.8 0.00 0.00 0.00 87 1012.9
20260905061007 26 357 3.2 4.8 0.00 0.00 0.00 86 1012.9
20260905060507 27 10 1.6 4.8 0.00 0.00 0.00 86 1013.0
20260905060020 27 309 3.2 6.4 0.00 0.00 0.00 86 1013.0
20260905055511 27 314 4.8 6.4 0.00 0.00 0.00 85 1013.1
20260905055010 27 314 3.2 6.4 0.00 0.00 0.00 85 1013.1
20260905054521 27 307 4.8 6.4 0.00 0.00 0.00 85 1013.1
20260905054010 27 337 3.2 4.8 0.00 0.00 0.00 84 1013.1
20260905053512 27 70 1.6 4.8 0.00 0.00 0.00 84 1013.1
20260905053023 27 76 3.2 4.8 0.00 0.00 0.00 84 1013.0
20260905052503 27 77 1.6 3.2 0.00 0.00 0.00 85 1013.1
20260905052006 27 77 1.6 3.2 0.00 0.00 0.00 85 1013.2
20260905051539 27 76 3.2 3.2 0.00 0.00 0.00 85 1013.3
20260905051017 27 76 1.6 3.2 0.00 0.00 0.00 84 1013.3
20260905050517 27 76 0.0 3.2 0.00 0.00 0.00 84 1013.3
20260905050036 27 15 1.6 3.2 0.00 0.00 0.00 84 1013.3
20260905045520 27 15 0.0 3.2 0.00 0.00 0.00 84 1013.3
20260905045018 27 15 0.0 6.4 0.00 0.00 0.00 83 1013.3
20260905044539 27 337 3.2 6.4 0.00 0.00 0.00 82 1013.3
20260905044019 27 311 4.8 6.4 0.00 0.00 0.00 82 1013.2
20260905043521 27 357 4.8 4.8 0.00 0.00 0.00 82 1013.2
20260905043045 27 38 3.2 4.8 0.00 0.00 0.00 82 1013.4
20260905042519 27 38 3.2 4.8 0.00 0.00 0.00 82 1013.4
20260905042016 28 37 1.6 4.8 0.00 0.00 0.00 81 1013.3
20260905041530 27 44 3.2 4.8 0.00 0.00 0.00 81 1013.3
20260905041018 27 27 4.8 4.8 0.00 0.00 0.00 81 1013.3
20260905040515 27 104 0.0 1.6 0.00 0.00 0.00 81 1013.4
20260905040036 28 104 0.0 3.2 0.00 0.00 0.00 80 1013.5
20260905035520 28 105 0.0 3.2 0.00 0.00 0.00 80 1013.6
20260905035018 28 104 0.0 1.6 0.00 0.00 0.00 80 1013.5
20260905034533 28 104 0.0 1.6 0.00 0.00 0.00 80 1013.5
20260905034017 28 60 0.0 3.2 0.00 0.00 0.00 80 1013.5
20260905033517 28 46 1.6 4.8 0.00 0.00 0.00 80 1013.5
20260905033041 28 46 1.6 4.8 0.00 0.00 0.00 80 1013.5
20260905032513 28 32 3.2 4.8 0.00 0.00 0.00 81 1013.5
20260905032015 27 32 3.2 4.8 0.00 0.00 0.00 81 1013.5
20260905031526 28 30 1.6 4.8 0.00 0.00 0.00 81 1013.6
20260905031018 28 357 3.2 4.8 0.00 0.00 0.00 81 1013.5
20260905030516 28 337 3.2 4.8 0.00 0.00 0.00 80 1013.4
20260905030033 28 312 4.8 4.8 0.00 0.00 0.00 78 1013.5
20260905025517 28 313 4.8 4.8 0.00 0.00 0.00 78 1013.4
20260905025020 28 339 4.8 4.8 0.00 0.00 0.00 78 1013.4
20260905024534 28 34 1.6 3.2 0.00 0.00 0.00 78 1013.5
20260905024020 28 29 3.2 3.2 0.00 0.00 0.00 78 1013.4
20260905023516 28 28 3.2 4.8 0.00 0.00 0.00 78 1013.4
20260905023038 29 28 3.2 4.8 0.00 0.00 0.00 78 1013.4
20260905022521 29 30 3.2 4.8 0.00 0.00 0.00 77 1013.3
20260905022018 29 30 3.2 4.8 0.00 0.00 0.00 76 1013.1
20260905021526 30 29 3.2 4.8 0.00 0.00 0.00 76 1013.1
20260905021014 30 29 3.2 4.8 0.00 0.00 0.00 75 1013.2
20260905020515 30 33 3.2 3.2 0.00 0.00 0.00 75 1013.1
20260905020029 30 32 1.6 3.2 0.00 0.00 0.00 76 1013.2
20260905015526 30 32 1.6 4.8 0.00 0.00 0.00 76 1013.0
20260905015016 30 32 3.2 4.8 0.00 0.00 0.00 76 1013.0
20260905014536 30 32 3.2 3.2 0.00 0.00 0.00 76 1013.0
20260905014018 30 31 3.2 3.2 0.00 0.00 0.00 76 1012.9
20260905013521 30 352 1.6 3.2 0.00 0.00 0.00 76 1012.8
20260905013031 30 342 1.6 4.8 0.00 0.00 0.00 76 1012.8
20260905012516 30 342 3.2 4.8 0.00 0.00 0.00 76 1012.9
20260905012017 30 347 3.2 4.8 0.00 0.00 0.00 76 1012.8
20260905011535 30 348 3.2 4.8 0.00 0.00 0.00 75 1012.8
20260905011023 30 328 1.6 4.8 0.00 0.00 0.00 74 1012.8
20260905010512 31 343 3.2 4.8 0.00 0.00 0.00 73 1012.8
20260905010027 31 345 3.2 6.4 0.00 0.00 0.00 73 1012.8
20260905005514 31 347 1.6 6.4 0.00 0.00 0.00 72 1012.7
20260905005016 31 338 3.2 4.8 0.00 0.00 0.00 72 1012.7
20260905004530 31 353 3.2 4.8 0.00 0.00 0.00 71 1012.7
20260905004016 31 354 3.2 4.8 0.00 0.00 0.00 70 1012.8
20260905003516 31 358 1.6 4.8 0.00 0.00 0.00 69 1012.8
20260905003033 31 333 3.2 4.8 0.00 0.00 0.00 69 1012.8
20260905002515 32 323 4.8 6.4 0.00 0.00 0.00 68 1012.8
20260905002018 32 319 4.8 6.4 0.00 0.00 0.00 68 1012.9
20260905001537 32 314 4.8 6.4 0.00 0.00 0.00 68 1012.9
20260905001016 32 314 3.2 8.0 0.00 0.00 0.00 67 1012.9
20260905000521 32 336 3.2 8.0 0.00 0.00 0.00 66 1012.8
20260905000036 32 302 4.8 6.4 0.00 0.00 0.00 66 1012.9
20260904235518 32 319 3.2 8.0 0.00 0.00 0.00 65 1012.9
20260904235017 32 330 4.8 9.7 0.00 0.00 0.00 65 1012.9
20260904234539 33 46 6.4 9.7 0.00 0.00 0.00 64 1012.9
20260904234019 33 314 6.4 9.7 0.00 0.00 0.00 64 1012.8
20260904233514 33 321 6.4 9.7 0.00 0.00 0.00 64 1012.8
20260904233032 33 321 6.4 9.7 0.00 0.00 0.00 63 1012.8
20260904232516 33 335 4.8 9.7 0.00 0.00 0.00 63 1012.8
20260904232016 33 334 4.8 9.7 0.00 0.00 0.00 62 1012.7
20260904231535 33 311 6.4 9.7 0.00 0.00 0.00 62 1012.6
20260904231022 33 309 8.0 9.7 0.00 0.00 0.00 61 1012.5
20260904230516 33 314 6.4 12.9 0.00 0.00 0.00 60 1012.5
20260904230036 34 308 8.0 12.9 0.00 0.00 0.00 60 1012.5
20260904225522 34 305 6.4 12.9 0.00 0.00 0.00 59 1012.5
20260904225013 34 291 6.4 12.9 0.00 0.00 0.00 58 1012.6